KF7HDR Weather Reports


time (UTC)temp
C
wind
direction
speed
KPH
gust
KPH
rain 1hr
cm
rain 24hr
cm
rain mn
cm
humidity
%
barometer
mb
20260901190517 16 172 0.0 3.2 0.00 0.00 0.00 79 1014.0
20260901185615 16 200 0.0 3.2 0.00 0.00 0.00 80 1014.1
20260901184613 16 193 1.6 3.2 0.00 0.00 0.00 82 1014.1
20260901183651 16 71 0.0 4.8 0.00 0.00 0.00 84 1014.2
20260901182609 16 164 4.8 9.7 0.00 0.00 0.00 85 1014.2
20260901181607 16 353 3.2 8.0 0.00 0.00 0.00 88 1014.2
20260901180604 15 143 1.6 8.0 0.00 0.00 0.00 89 1014.2
20260901175602 15 137 1.6 6.4 0.00 0.00 0.00 90 1014.2
20260901174600 15 196 1.6 6.4 0.00 0.00 0.00 91 1014.2
20260901173558 14 127 1.6 6.4 0.00 0.00 0.00 93 1014.3
20260901172556 13 213 1.6 4.8 0.00 0.00 0.00 95 1014.2
20260901171555 13 171 1.6 4.8 0.00 0.00 0.00 95 1014.1
20260901170553 13 257 1.6 4.8 0.00 0.00 0.00 95 1014.1
20260901165552 13 79 1.6 4.8 0.00 0.00 0.00 95 1014.1
20260901164611 13 183 1.6 4.8 0.00 0.00 0.00 94 1014.0
20260901163609 13 176 1.6 4.8 0.00 0.00 0.00 93 1014.0
20260901162547 13 263 3.2 4.8 0.00 0.00 0.00 92 1014.1
20260901161545 13 208 1.6 3.2 0.00 0.00 0.00 91 1014.0
20260901160543 14 190 1.6 4.8 0.00 0.00 0.00 90 1014.0
20260901155540 14 67 1.6 4.8 0.00 0.00 0.00 88 1014.0
20260901154538 14 145 0.0 3.2 0.00 0.00 0.00 87 1013.9
20260901153538 14 214 1.6 3.2 0.00 0.00 0.00 87 1014.0
20260901152536 14 197 1.6 3.2 0.00 0.00 0.00 87 1014.0
20260901151534 14 169 1.6 3.2 0.00 0.00 0.00 87 1013.9
20260901150533 14 323 1.6 4.8 0.00 0.00 0.00 86 1013.7
20260901145532 14 273 3.2 4.8 0.00 0.00 0.00 86 1013.6
20260901144530 13 247 0.0 3.2 0.00 0.00 0.00 87 1013.6
20260901143528 13 151 1.6 4.8 0.00 0.00 0.00 87 1013.6
20260901142526 13 211 0.0 4.8 0.00 0.00 0.00 87 1013.5
20260901141525 13 303 1.6 4.8 0.00 0.00 0.00 87 1013.5
20260901140543 13 121 0.0 3.2 0.00 0.00 0.00 87 1013.5
20260901135541 13 307 1.6 4.8 0.00 0.00 0.00 87 1013.4
20260901134518 13 211 1.6 4.8 0.00 0.00 0.00 87 1013.4
20260901133516 13 150 3.2 4.8 0.00 0.00 0.00 87 1013.3
20260901132614 13 0.0 4.8 0.00 0.00 0.00 87 1013.3
20260901131612 13 270 3.2 6.4 0.00 0.00 0.00 87 1013.3
20260901130610 13 155 3.2 6.4 0.00 0.00 0.00 87 1013.2
20260901125628 13 137 1.6 6.4 0.00 0.00 0.00 87 1013.2
20260901124606 13 270 3.2 8.0 0.00 0.00 0.00 87 1013.1
20260901123604 13 310 3.2 6.4 0.00 0.00 0.00 87 1013.1
20260901122603 13 97 3.2 6.4 0.00 0.00 0.00 88 1013.2
20260901121601 13 69 3.2 6.4 0.00 0.00 0.00 88 1013.2
20260901120600 13 323 3.2 8.0 0.00 0.00 0.00 88 1013.1
20260901115558 13 75 3.2 6.4 0.00 0.00 0.00 88 1013.3
20260901114557 13 280 4.8 8.0 0.00 0.00 0.00 88 1013.1
20260901113555 13 0.0 3.2 0.00 0.00 0.00 89 1013.2
20260901112554 13 153 1.6 6.4 0.00 0.00 0.00 89 1013.1
20260901111634 12 201 1.6 6.4 0.00 0.00 0.00 91 1013.0
20260901110550 12 115 4.8 6.4 0.00 0.00 0.00 91 1013.0
20260901105549 12 250 1.6 6.4 0.00 0.00 0.00 90 1012.8
20260901104548 13 284 4.8 9.7 0.00 0.00 0.00 89 1012.9
20260901103546 13 42 0.0 3.2 0.00 0.00 0.00 89 1012.9
20260901102544 13 207 0.0 1.6 0.00 0.00 0.00 88 1012.8
20260901101542 13 0.0 3.2 0.00 0.00 0.00 88 1012.8
20260901100540 13 197 0.0 3.2 0.00 0.00 0.00 87 1012.8
20260901095537 13 335 1.6 3.2 0.00 0.00 0.00 87 1012.8
20260901094555 13 352 0.0 3.2 0.00 0.00 0.00 87 1012.6
20260901093533 13 0.0 1.6 0.00 0.00 0.00 86 1012.7
20260901092530 13 245 1.6 3.2 0.00 0.00 0.00 86 1012.5
20260901091550 13 0.0 3.2 0.00 0.00 0.00 86 1012.4
20260901090528 14 0.0 0.0 0.00 0.00 0.00 86 1012.3
20260901085526 14 330 0.0 1.6 0.00 0.00 0.00 86 1012.3
20260901084525 14 0.0 0.0 0.00 0.00 0.00 86 1012.4
20260901083523 14 0.0 0.0 0.00 0.00 0.00 85 1012.3
20260901082522 14 315 0.0 3.2 0.00 0.00 0.00 85 1012.4
20260901081520 15 201 1.6 4.8 0.00 0.00 0.00 84 1012.4
20260901080518 15 0.0 0.0 0.00 0.00 0.00 83 1012.2
20260901075517 15 150 1.6 3.2 0.00 0.00 0.00 83 1012.2
20260901074515 15 166 1.6 3.2 0.00 0.00 0.00 82 1012.2
20260901073614 15 155 1.6 3.2 0.00 0.00 0.00 82 1012.2
20260901072632 15 168 0.0 3.2 0.00 0.00 0.00 81 1012.2
20260901071610 16 0.0 3.2 0.00 0.00 0.00 80 1012.0
20260901070610 16 0.0 1.6 0.00 0.00 0.00 79 1011.8
20260901065607 16 0.0 3.2 0.00 0.00 0.00 78 1011.8
20260901064648 16 185 0.0 3.2 0.00 0.00 0.00 76 1011.5
20260901063603 17 166 1.6 4.8 0.00 0.00 0.00 75 1011.4
20260901062600 17 0.0 1.6 0.00 0.00 0.00 73 1011.2
20260901061558 18 175 1.6 4.8 0.00 0.00 0.00 72 1011.0
20260901060557 18 0.0 0.0 0.00 0.00 0.00 73 1011.0
20260901055554 18 0.0 0.0 0.00 0.00 0.00 72 1010.9
20260901054614 18 0.0 0.0 0.00 0.00 0.00 71 1010.7
20260901053552 19 0.0 0.0 0.00 0.00 0.00 70 1010.7
20260901052550 19 0.0 0.0 0.00 0.00 0.00 69 1010.7
20260901051547 20 314 0.0 1.6 0.00 0.00 0.00 67 1010.7
20260901050545 20 0.0 0.0 0.00 0.00 0.00 65 1010.5
20260901045543 20 332 0.0 3.2 0.00 0.00 0.00 62 1010.4
20260901044621 20 348 0.0 1.6 0.00 0.00 0.00 60 1010.4
20260901043559 21 0.0 3.2 0.00 0.00 0.00 58 1010.3
20260901042537 21 0.0 1.6 0.00 0.00 0.00 57 1010.1
20260901041555 20 0.0 1.6 0.00 0.00 0.00 58 1009.9
20260901040533 21 0.0 1.6 0.00 0.00 0.00 58 1009.8
20260901035530 21 0.0 3.2 0.00 0.00 0.00 57 1009.8
20260901034528 21 0.0 0.0 0.00 0.00 0.00 57 1009.7
20260901033526 21 0.0 0.0 0.00 0.00 0.00 57 1009.5
20260901032605 22 0.0 0.0 0.00 0.00 0.00 56 1009.4
20260901031524 22 0.0 1.6 0.00 0.00 0.00 54 1009.2
20260901030522 23 0.0 0.0 0.00 0.00 0.00 53 1009.4
20260901025520 23 0.0 0.0 0.00 0.00 0.00 52 1009.3
20260901024517 24 0.0 3.2 0.00 0.00 0.00 48 1009.4
20260901023615 25 0.0 0.0 0.00 0.00 0.00 47 1009.4
20260901022613 25 158 1.6 3.2 0.00 0.00 0.00 46 1009.3
20260901021611 26 0.0 1.6 0.00 0.00 0.00 46 1009.3
20260901020609 26 144 1.6 6.4 0.00 0.00 0.00 45 1009.3
20260901015607 27 154 1.6 6.4 0.00 0.00 0.00 44 1009.3
20260901014605 27 144 1.6 4.8 0.00 0.00 0.00 44 1009.1
20260901013602 27 215 3.2 4.8 0.00 0.00 0.00 43 1009.1
20260901012600 27 96 1.6 4.8 0.00 0.00 0.00 41 1009.1
20260901011558 28 278 0.0 3.2 0.00 0.00 0.00 38 1009.3
20260901010556 28 194 3.2 4.8 0.00 0.00 0.00 36 1009.2
20260901005554 29 161 1.6 4.8 0.00 0.00 0.00 35 1009.3
20260901004552 30 158 3.2 6.4 0.00 0.00 0.00 34 1009.1
20260901003549 30 173 0.0 3.2 0.00 0.00 0.00 34 1009.2
20260901002547 30 139 4.8 9.7 0.00 0.00 0.00 34 1009.3
20260901001546 30 116 1.6 6.4 0.00 0.00 0.00 34 1009.2
20260901000543 30 128 3.2 6.4 0.00 0.00 0.00 35 1009.3
20260831235541 31 115 4.8 8.0 0.00 0.00 0.00 33 1009.3
20260831234539 30 0.0 3.2 0.00 0.00 0.00 34 1009.4
20260831233536 31 131 3.2 6.4 0.00 0.00 0.00 33 1009.3
20260831232535 30 163 1.6 4.8 0.00 0.00 0.00 34 1009.4
20260831231534 30 147 3.2 9.7 0.00 0.00 0.00 34 1009.4
20260831230532 31 72 3.2 6.4 0.00 0.00 0.00 33 1009.5
20260831225530 31 122 1.6 6.4 0.00 0.00 0.00 34 1009.7
20260831224528 30 119 4.8 8.0 0.00 0.00 0.00 35 1009.7
20260831223526 30 136 3.2 8.0 0.00 0.00 0.00 36 1009.8
20260831222525 30 149 3.2 8.0 0.00 0.00 0.00 34 1009.8
20260831221524 30 93 1.6 4.8 0.00 0.00 0.00 36 1009.8
20260831220541 30 102 3.2 6.4 0.00 0.00 0.00 35 1009.9
20260831215519 30 115 3.2 6.4 0.00 0.00 0.00 36 1010.0
20260831214517 29 127 0.0 6.4 0.00 0.00 0.00 37 1010.1
20260831213615 29 119 1.6 4.8 0.00 0.00 0.00 38 1010.3
20260831212614 29 97 1.6 4.8 0.00 0.00 0.00 38 1010.3
20260831211612 30 146 3.2 8.0 0.00 0.00 0.00 37 1010.3
20260831210611 29 51 3.2 4.8 0.00 0.00 0.00 38 1010.4
20260831205608 28 85 1.6 4.8 0.00 0.00 0.00 40 1010.5
20260831204606 28 349 1.6 4.8 0.00 0.00 0.00 40 1010.6
20260831203604 28 169 4.8 8.0 0.00 0.00 0.00 40 1010.8
20260831202602 27 119 1.6 8.0 0.00 0.00 0.00 42 1011.0
20260831201602 27 155 1.6 6.4 0.00 0.00 0.00 42 1010.9
20260831200558 26 158 3.2 8.0 0.00 0.00 0.00 43 1011.2
20260831195555 25 212 1.6 6.4 0.00 0.00 0.00 45 1011.3
20260831194554 25 232 1.6 3.2 0.00 0.00 0.00 45 1011.4
20260831193551 25 223 1.6 4.8 0.00 0.00 0.00 47 1011.4
20260831192549 25 218 1.6 4.8 0.00 0.00 0.00 47 1011.5
20260831191547 25 255 1.6 6.4 0.00 0.00 0.00 48 1011.8